Wahoo, NE

10:25 PM CST on December 08, 2016 (GMT -0600)
Wahoo Municipal

Weather History for KAHQ - October, 2014

Change the Weather History Date:

Monday, October 27, 2014

  Actual Average Record
Temperature  
Mean Temperature 60 °F -  
Max Temperature 72 °F 62 °F 80 °F (1966)
Min Temperature 48 °F 37 °F 22 °F (1969)
Degree Days  
Heating Degree Days 5    
Growing Degree Days 10 (Base 50)    
Moisture  
Dew Point 45 °F    
Average Humidity 67    
Maximum Humidity 93    
Minimum Humidity 27    
Precipitation  
Precipitation 0.00 in - - ()
Sea Level Pressure  
Sea Level Pressure 29.68 in    
Wind  
Wind Speed 7 mph (NW)    
Max Wind Speed 23 mph    
Max Gust Speed 34 mph    
Visibility 9 miles    
Events      
Averages and records for this station are not official NWS values.
T = Trace of Precipitation, MM = Missing Value Source: NWS Daily Summary

Daily Weather History Graph

Daily Weather History Graph

Search for Another Location

Airport or City:

Trip Planner

Search our weather history database for the weather conditions in past years. The results will help you decide how hot, cold, wet, or windy it might be!

Date:

Astronomy

Oct. 27, 2014 Rise Set
Actual Time 7:51 AM CDT 6:28 PM CDT
Civil Twilight 7:23 AM CDT 6:56 PM CDT
Nautical Twilight 6:51 AM CDT 7:28 PM CDT
Astronomical Twilight 6:18 AM CDT 8:00 PM CDT
Moon 11:29 AM CDT (10/27) 9:33 PM CDT (10/27)
Length of Visible Light 11h 33m
Length of Day
10h 36m
Waxing Crescent, 15% of the Moon is Illuminated
Oct 27
Waxing Crescent
Oct 30
First Quarter
Nov 6
Full
Nov 14
Last Quarter
Nov 22
New

Hourly Weather History & Observations

Time (CDT) Temp. Dew Point Humidity Pressure Visibility Wind Dir Wind Speed Gust Speed Precip Events Conditions
12:15 AM 53.1 °F 50.2 °F 90% 29.54 in 10.0 mi Calm Calm - N/A   Clear
12:35 AM 53.8 °F 51.1 °F 91% 29.53 in 10.0 mi SW 3.5 mph - N/A   Clear
12:55 AM 52.9 °F 50.0 °F 90% 29.53 in 10.0 mi WNW 3.5 mph - N/A   Clear
1:15 AM 53.6 °F 51.1 °F 91% 29.53 in 7.0 mi Calm Calm - N/A   Clear
1:35 AM 55.0 °F 52.5 °F 91% 29.53 in 10.0 mi Calm Calm - N/A   Clear
1:55 AM 51.4 °F 48.6 °F 90% 29.54 in 7.0 mi NW 4.6 mph - N/A   Clear
2:15 AM 51.6 °F 48.6 °F 89% 29.53 in 10.0 mi NNW 5.8 mph - N/A   Clear
2:35 AM 51.1 °F 48.4 °F 90% 29.53 in 10.0 mi North 4.6 mph - N/A   Clear
2:55 AM 50.9 °F 48.2 °F 90% 29.53 in 10.0 mi NNW 3.5 mph - N/A   Clear
3:15 AM 50.0 °F 47.7 °F 92% 29.53 in 7.0 mi Calm Calm - N/A   Clear
3:35 AM 48.2 °F 45.5 °F 90% 29.53 in 10.0 mi Calm Calm - N/A   Clear
3:55 AM 50.2 °F 47.8 °F 92% 29.54 in 7.0 mi West 4.6 mph - N/A   Clear
4:15 AM 49.3 °F 47.1 °F 92% 29.55 in 7.0 mi Calm Calm - N/A   Clear
4:35 AM 48.9 °F 46.6 °F 92% 29.55 in 7.0 mi Calm Calm - N/A   Clear
4:55 AM 49.1 °F 46.6 °F 91% 29.55 in 7.0 mi NE 3.5 mph - N/A   Clear
5:15 AM 48.2 °F 45.9 °F 92% 29.56 in 7.0 mi North 4.6 mph - N/A   Clear
5:35 AM 48.7 °F 46.6 °F 92% 29.56 in 5.0 mi NNW 5.8 mph - N/A   Clear
5:55 AM 48.6 °F 46.2 °F 92% 29.56 in 5.0 mi Calm Calm - N/A   Clear
6:15 AM 48.0 °F 45.9 °F 92% 29.56 in 7.0 mi SW 3.5 mph - N/A   Clear
6:35 AM 48.2 °F 46.0 °F 92% 29.59 in 4.0 mi West 9.2 mph - N/A   Clear
6:55 AM 52.9 °F 50.9 °F 93% 29.59 in 7.0 mi WNW 4.6 mph - N/A   Clear
7:15 AM 53.1 °F 50.4 °F 91% 29.58 in 7.0 mi Calm Calm - N/A   Clear
7:35 AM 51.1 °F 48.7 °F 92% 29.58 in 5.0 mi NNW 6.9 mph - N/A   Clear
7:55 AM 53.8 °F 50.9 °F 90% 29.58 in 7.0 mi NNW 9.2 mph - N/A   Clear
8:15 AM 55.4 °F 51.8 °F 88% 29.59 in 10.0 mi NW 9.2 mph - N/A   Clear
8:35 AM 55.9 °F 51.8 °F 86% 29.60 in 10.0 mi NW 12.7 mph 17.3 mph N/A   Clear
8:55 AM 55.9 °F 51.3 °F 84% 29.60 in 10.0 mi NNW 13.8 mph 19.6 mph N/A   Clear
9:15 AM 56.3 °F 50.2 °F 80% 29.61 in 10.0 mi NNW 12.7 mph 20.7 mph N/A   Clear
9:35 AM 57.7 °F 49.5 °F 74% 29.61 in 10.0 mi NNW 16.1 mph 21.9 mph N/A   Clear
9:55 AM 59.2 °F 48.7 °F 68% 29.62 in 10.0 mi NNW 15.0 mph 24.2 mph N/A   Clear
10:15 AM 61.0 °F 48.2 °F 63% 29.63 in 10.0 mi NNW 16.1 mph 24.2 mph N/A   Clear
10:35 AM 61.7 °F 47.1 °F 59% 29.63 in 10.0 mi NNW 18.4 mph 25.3 mph N/A   Clear
10:55 AM 62.1 °F 46.8 °F 57% 29.63 in 10.0 mi NNW 16.1 mph 25.3 mph N/A   Clear
11:15 AM 61.9 °F 46.4 °F 57% 29.63 in 10.0 mi North 16.1 mph 26.5 mph N/A   Clear
11:35 AM 63.5 °F 46.9 °F 55% 29.63 in 10.0 mi NNW 17.3 mph 26.5 mph N/A   Clear
11:55 AM 64.6 °F 47.3 °F 53% 29.65 in 10.0 mi NNW 17.3 mph 26.5 mph N/A   Clear
12:15 PM 65.3 °F 46.6 °F 51% 29.65 in 10.0 mi NNW 18.4 mph 27.6 mph N/A   Clear
12:35 PM 66.7 °F 44.6 °F 45% 29.65 in 10.0 mi NNW 21.9 mph 32.2 mph N/A   Clear
12:55 PM 67.6 °F 44.6 °F 43% 29.66 in 10.0 mi North 13.8 mph 24.2 mph N/A   Clear
1:15 PM 68.4 °F 43.9 °F 41% 29.66 in 10.0 mi North 19.6 mph 25.3 mph N/A   Clear
1:35 PM 68.4 °F 43.2 °F 40% 29.65 in 10.0 mi North 17.3 mph 26.5 mph N/A   Clear
1:55 PM 69.6 °F 42.1 °F 37% 29.65 in 10.0 mi North 19.6 mph 27.6 mph N/A   Clear
2:15 PM 70.2 °F 42.1 °F 36% 29.65 in 10.0 mi North 13.8 mph 20.7 mph N/A   Clear
2:35 PM 72.0 °F 41.2 °F 33% 29.65 in 10.0 mi North 11.5 mph 19.6 mph N/A   Clear
2:55 PM 72.0 °F 37.9 °F 29% 29.66 in 10.0 mi North 11.5 mph 19.6 mph N/A   Clear
3:15 PM 72.5 °F 36.5 °F 27% 29.66 in 10.0 mi NNW 15.0 mph 21.9 mph N/A   Scattered Clouds
3:35 PM 70.3 °F 38.5 °F 31% 29.68 in 10.0 mi NW 11.5 mph 21.9 mph N/A   Mostly Cloudy
3:55 PM 69.1 °F 39.7 °F 34% 29.70 in 10.0 mi NW 17.3 mph 27.6 mph N/A   Overcast
4:15 PM 66.2 °F 43.3 °F 44% 29.72 in 10.0 mi NW 17.3 mph 29.9 mph N/A   Overcast
4:35 PM 63.1 °F 45.1 °F 52% 29.75 in 10.0 mi NW 19.6 mph 33.4 mph N/A   Overcast
4:55 PM 59.0 °F 43.3 °F 56% 29.77 in 10.0 mi NW 17.3 mph 32.2 mph N/A   Overcast
5:15 PM 57.2 °F 40.3 °F 53% 29.79 in 10.0 mi NNW 23.0 mph 34.5 mph N/A   Overcast
5:35 PM 56.5 °F 39.7 °F 54% 29.81 in 10.0 mi NNW 20.7 mph 27.6 mph N/A   Mostly Cloudy
5:55 PM 56.3 °F 40.3 °F 55% 29.81 in 10.0 mi NNW 18.4 mph 26.5 mph N/A   Mostly Cloudy
6:15 PM 55.4 °F 41.0 °F 58% 29.82 in 10.0 mi NNW 9.2 mph 17.3 mph N/A   Mostly Cloudy
6:35 PM 54.3 °F 41.2 °F 61% 29.82 in 10.0 mi North 6.9 mph - N/A   Mostly Cloudy
6:55 PM 54.1 °F 41.7 °F 63% 29.84 in 10.0 mi North - - N/A   Scattered Clouds
7:15 PM 53.8 °F 41.4 °F 63% 29.85 in 10.0 mi NNW 4.6 mph - N/A   Scattered Clouds
7:35 PM 53.6 °F 41.9 °F 65% 29.87 in 10.0 mi NW 3.5 mph - N/A   Mostly Cloudy
7:55 PM 53.6 °F 42.1 °F 65% 29.88 in 10.0 mi WNW 5.8 mph - N/A   Mostly Cloudy
8:15 PM 53.8 °F 41.4 °F 63% 29.88 in 10.0 mi WNW 5.8 mph - N/A   Scattered Clouds
8:35 PM 53.6 °F 41.0 °F 62% 29.88 in 10.0 mi NW 3.5 mph - N/A   Scattered Clouds
8:55 PM 53.6 °F 40.6 °F 62% 29.88 in 10.0 mi NW 5.8 mph - N/A   Mostly Cloudy
9:15 PM 54.5 °F 39.4 °F 57% 29.90 in 10.0 mi NW 8.1 mph - N/A   Scattered Clouds
9:35 PM 54.1 °F 37.9 °F 54% 29.91 in 10.0 mi NW 6.9 mph - N/A   Clear
9:55 PM 53.6 °F 37.0 °F 53% 29.93 in 10.0 mi NW 6.9 mph - N/A   Clear
10:15 PM 53.1 °F 36.5 °F 53% 29.93 in 10.0 mi NW 6.9 mph - N/A   Clear
10:35 PM 53.1 °F 35.6 °F 52% 29.95 in 10.0 mi WNW 5.8 mph - N/A   Clear
10:55 PM 52.7 °F 36.0 °F 53% 29.96 in 10.0 mi WNW 5.8 mph - N/A   Clear
11:15 PM 52.0 °F 36.5 °F 56% 29.96 in 10.0 mi WNW 4.6 mph - N/A   Clear
11:35 PM 51.6 °F 37.0 °F 58% 29.97 in 10.0 mi West 6.9 mph - N/A   Clear
11:55 PM 51.1 °F 37.4 °F 60% 29.98 in 10.0 mi West 8.1 mph - N/A   Clear